Theta_e
333 334 335 333 334 334 335 335 335 340 343 343 342 342 341 340 340 341 342 341 342 343 340 335 331 329 326 326 326 329 330 328 326 329 334 333 334 332 331 330 329 329 330 330
334 335 333 332 333 334 334 335 336 339 342 342 342 341 340 339 341 341 340 341 342 341 338 338 333 329 327 327 328 328 327 325 324 333 332 333 333 331 331 329 329 325 327 330
334 334 331 332 333 334 335 335 336 338 343 341 341 342 341 340 340 339 339 342 340 340 340 338 340 333 329 327 328 328 328 327 327 329 327 327 327 326 330 328 330 328 326 328
333 332 331 332 333 333 335 335 337 339 340 340 341 339 341 340 341 339 339 339 339 340 341 340 342 340 335 330 328 330 329 330 329 327 328 327 331 331 331 330 330 331 327 327
333 331 332 332 333 333 335 336 339 340 340 342 342 340 343 341 341 341 340 340 339 340 340 341 343 342 339 337 330 331 330 330 330 329 328 328 329 330 331 329 331 328 331 327
331 330 330 332 335 333 337 339 340 340 339 340 343 340 340 340 340 338 339 339 338 338 338 339 340 343 343 341 338 331 331 331 331 330 330 329 329 330 332 330 331 332 332 328
332 332 331 331 336 337 338 341 340 340 339 337 342 341 341 339 339 337 338 336 338 338 338 339 340 341 341 343 342 337 332 332 332 332 330 329 330 330 332 329 333 332 331 332
332 332 331 332 333 336 339 340 339 339 338 336 342 339 343 340 340 340 338 337 339 339 339 339 339 339 339 340 343 341 335 333 333 333 331 332 329 330 333 331 334 334 333 332
332 332 331 332 334 335 339 338 338 340 340 337 338 339 340 339 340 339 338 339 341 340 339 339 340 341 340 341 339 340 340 338 337 337 334 335 329 329 333 331 330 334 333 334
332 333 331 334 335 335 336 337 339 340 338 339 337 336 340 339 339 339 339 340 339 338 337 337 337 338 338 339 342 342 342 341 342 341 341 341 337 333 332 331 331 332 332 329
331 333 332 332 334 334 337 338 339 340 338 338 337 338 339 340 342 342 340 339 339 337 335 334 333 333 334 332 335 340 342 342 342 343 342 342 339 337 334 332 331 328 330 330
331 336 334 332 336 336 337 338 339 340 341 338 339 336 341 342 342 341 340 340 338 335 333 331 332 333 333 333 333 338 342 342 342 341 339 337 335 337 334 331 330 328 328 330
334 336 334 335 338 337 338 339 339 341 342 337 339 338 341 340 341 340 340 339 337 334 333 332 332 334 334 335 335 338 341 341 339 336 336 336 336 337 334 332 330 330 330 330
333 341 335 332 333 332 336 336 336 338 337 334 335 337 343 343 343 342 340 337 334 332 333 333 333 334 334 335 335 339 339 336 337 336 336 337 337 337 336 331 331 329 330 331
340 340 338 334 335 335 333 333 335 336 335 337 334 338 341 343 344 341 338 335 333 332 332 333 335 336 334 334 336 339 337 336 336 336 333 332 333 334 335 333 331 330 330 329
341 340 338 337 337 335 334 334 335 336 337 337 338 340 341 341 341 340 336 334 332 332 333 333 336 337 335 334 337 339 337 335 336 334 333 333 331 333 333 334 335 333 330 329
344 342 341 336 339 337 336 335 336 335 336 338 340 341 342 343 341 337 335 334 333 333 334 334 336 337 335 335 338 338 336 334 335 334 332 330 329 329 328 329 330 331 332 331
344 345 340 338 340 340 337 337 337 338 337 337 341 341 341 341 340 335 334 333 333 334 333 333 334 333 334 336 336 336 335 334 334 330 328 327 327 325 322 324 325 325 319 319
343 343 340 339 338 336 333 338 338 339 338 340 341 341 341 340 338 336 335 333 333 334 334 334 334 333 335 336 335 335 334 333 331 328 326 324 323 323 321 320 321 322 321 322
340 344 341 339 334 333 333 339 338 341 338 337 340 341 342 341 341 337 336 333 334 335 335 334 333 334 335 335 335 335 334 333 329 326 324 323 322 322 321 321 320 320 321 321
340 339 336 334 336 333 333 338 341 342 341 340 341 342 342 344 338 337 334 334 334 335 337 335 335 334 335 334 334 334 333 331 329 326 325 323 322 316 319 314 316 315 319 320
335 335 335 337 335 334 337 339 341 347 342 343 342 342 342 342 339 336 336 337 337 336 337 336 335 335 334 334 334 333 332 331 328 327 325 323 320 318 319 313 316 320 321 321
336 336 338 337 333 341 340 338 342 342 344 343 343 342 342 341 340 336 337 338 338 336 336 334 335 334 333 333 333 331 332 331 329 327 324 321 320 320 318 319 321 321 321 321
339 337 338 342 333 341 340 340 340 341 340 341 342 343 343 340 339 337 337 339 339 337 336 335 336 334 331 332 332 332 332 331 330 328 323 322 321 318 322 321 320 320 320 320
337 339 340 341 339 338 338 339 339 338 340 342 341 341 342 340 339 338 338 339 340 338 336 335 335 332 330 332 332 332 332 331 330 327 324 323 320 321 322 322 322 321 320 317
337 337 338 334 338 337 336 335 333 336 337 338 340 341 341 340 340 339 338 338 340 339 337 336 336 332 331 332 332 332 331 330 329 328 327 323 320 322 322 321 321 320 317 311
Wind_Speed
1 10 6 9 7 7 5 7 8 1 2 6 4 4 3 3 3 6 4 3 4 3 5 2 5 8 10 12 11 6 6 14 17 16 11 9 8 8 10 11 12 10 8 9
8 8 4 7 3 5 5 9 9 3 2 6 5 5 4 4 6 4 1 4 1 3 6 4 2 8 8 8 7 5 6 9 15 12 11 9 7 8 9 10 11 11 10 10
10 6 1 5 7 6 9 8 11 8 1 2 9 6 9 8 6 4 3 4 2 2 3 4 3 2 6 6 4 5 6 7 10 16 17 14 13 9 9 10 10 11 12 12
8 2 5 10 8 6 13 6 6 4 8 7 7 4 9 4 1 2 1 3 2 1 2 4 4 6 5 4 2 1 4 8 11 15 16 15 11 8 8 9 10 11 13 13
3 5 7 11 5 6 7 5 4 4 5 7 2 10 12 5 6 4 2 4 3 3 4 5 4 6 6 7 6 4 6 9 13 14 17 16 14 11 8 11 11 12 13 13
12 2 6 3 5 1 5 4 5 4 4 9 6 6 11 9 7 7 8 8 6 6 7 8 6 6 6 7 10 8 9 9 9 13 15 16 16 16 10 12 11 10 12 13
9 8 4 4 4 5 4 8 3 3 2 7 3 5 7 7 4 4 5 7 8 8 10 11 10 9 9 10 10 10 11 10 7 12 13 15 12 15 14 15 12 12 10 11
6 9 9 3 5 7 5 5 7 10 6 2 5 3 7 6 5 3 3 4 8 10 12 12 12 12 12 7 8 11 14 15 13 13 13 14 14 14 13 14 13 11 11 12
3 3 7 2 2 5 5 7 4 6 4 10 1 5 5 8 7 6 7 7 10 11 12 12 13 13 13 11 8 5 11 12 13 14 14 15 15 14 13 12 16 13 14 13
3 9 3 5 4 3 6 2 5 7 6 8 2 5 6 9 7 4 6 9 10 9 11 12 14 15 15 14 11 6 8 10 12 11 10 11 11 13 12 10 9 12 14 15
10 6 4 6 6 6 4 7 4 5 5 9 7 5 6 8 6 5 7 7 7 8 10 12 12 13 15 16 14 9 5 6 6 7 8 9 11 12 12 13 9 8 12 15
9 4 7 3 4 2 4 4 4 7 2 4 8 10 5 7 5 5 6 5 6 7 10 11 11 12 14 15 15 11 7 6 6 6 7 8 9 10 12 13 13 10 13 13
8 6 7 9 10 6 6 4 1 3 4 11 9 3 4 9 7 5 4 3 3 7 9 9 11 12 12 15 15 11 7 6 7 7 7 7 7 9 10 10 11 11 12 14
7 3 8 9 10 6 4 7 5 6 7 9 10 4 7 9 8 6 3 1 6 7 8 9 10 11 12 14 14 9 6 8 9 7 8 7 8 7 9 10 10 12 12 11
4 6 6 5 4 6 7 7 6 9 11 9 14 10 4 9 8 6 2 1 4 6 8 10 10 10 12 13 11 6 7 9 8 7 7 9 10 8 7 8 9 11 11 12
4 4 5 7 5 7 9 9 9 11 12 12 12 12 3 8 7 7 3 2 4 6 9 9 9 10 12 11 8 5 7 8 6 6 5 7 8 9 9 8 5 5 6 9
4 3 5 10 2 6 10 13 11 9 9 10 11 8 10 10 9 6 3 3 4 5 8 9 9 10 10 8 5 5 6 5 5 5 6 7 7 8 9 9 7 4 5 6
5 5 3 4 3 10 4 1 5 9 12 10 11 7 9 10 7 6 3 3 4 4 7 8 8 9 7 5 5 6 6 4 4 5 5 6 6 7 9 8 8 8 6 5
4 5 3 5 8 7 12 6 5 6 8 6 9 7 10 7 6 9 5 5 4 4 5 6 6 5 5 4 6 6 6 5 4 3 4 5 6 7 9 9 9 9 8 7
4 4 6 3 7 11 11 4 4 4 10 5 10 10 13 11 8 4 6 6 5 4 4 5 5 5 4 6 6 5 7 4 4 2 3 4 5 7 9 10 10 10 9 10
6 4 8 5 7 8 8 5 8 7 2 4 10 12 15 11 9 5 6 7 7 6 6 5 5 5 6 6 6 5 5 4 5 3 6 7 8 11 10 12 11 11 11 12
7 6 7 3 7 11 4 6 7 8 3 1 7 12 17 16 10 9 8 8 9 9 7 7 6 7 6 5 5 6 5 5 4 5 6 8 9 10 9 11 10 10 9 11
6 4 5 3 7 2 2 15 7 9 9 4 6 11 15 15 15 14 13 12 11 11 10 9 8 8 6 6 5 6 7 5 6 6 6 6 8 8 9 10 9 9 10 12
5 3 5 3 8 6 11 11 14 15 17 13 9 11 14 17 15 16 15 15 14 13 13 10 9 8 7 6 5 6 6 6 6 7 7 7 7 10 8 8 9 10 11 12
5 7 6 7 12 9 3 5 8 13 12 14 17 16 17 17 17 17 16 18 17 16 14 12 11 10 8 7 6 6 5 6 6 6 7 8 7 8 9 9 10 10 9 10
11 12 9 10 7 5 11 10 17 15 12 10 11 13 16 18 20 18 19 19 20 18 16 14 12 11 10 8 7 6 6 5 6 6 7 8 8 9 10 11 11 12 10 11
Wind_Direction
141 283 18 0 0 353 326 303 301 63 43 297 5 316 108 162 213 176 207 200 215 268 187 145 52 45 52 74 71 91 197 224 220 223 213 225 240 248 238 230 225 225 227 239
237 242 24 335 338 309 308 303 277 193 152 288 3 335 65 140 120 145 197 194 146 136 180 180 63 43 48 57 83 107 161 208 220 219 215 219 248 261 247 246 238 236 238 237
281 339 0 295 289 269 275 311 310 314 69 186 306 168 120 125 133 132 130 175 152 51 226 228 268 15 32 30 62 123 165 186 209 220 231 245 259 273 260 248 251 249 245 240
271 66 258 287 273 305 294 358 276 260 274 352 2 340 111 150 96 185 137 139 57 20 335 252 254 259 309 347 335 179 153 192 217 230 225 238 228 234 243 237 239 233 246 241
272 269 266 277 7 314 330 308 240 220 265 294 150 283 104 158 137 80 83 72 55 4 346 349 295 264 282 282 287 272 213 215 222 234 232 247 243 251 262 236 238 250 241 247
273 291 267 4 31 305 133 160 196 198 275 265 78 299 107 79 47 68 65 61 53 29 0 357 332 298 289 264 262 239 229 225 243 243 249 255 256 266 249 229 228 234 241 249
199 223 147 206 168 158 249 219 223 258 302 290 123 252 47 78 54 19 37 50 39 14 9 359 354 343 320 285 257 233 238 251 285 255 253 269 269 264 268 227 233 223 236 233
259 169 177 154 302 338 241 298 307 304 292 0 153 264 96 78 68 112 101 50 32 12 7 7 8 10 5 352 263 238 245 261 290 284 261 273 275 271 259 233 226 231 228 238
224 228 118 47 160 288 121 246 16 288 211 267 48 148 137 140 114 118 81 51 39 39 36 31 26 23 19 16 11 290 249 262 276 285 258 273 278 280 256 247 252 239 238 241
265 275 104 121 183 115 289 68 231 201 276 289 142 240 121 174 136 102 68 63 65 46 31 25 16 14 9 4 358 323 283 287 294 294 284 274 265 278 256 249 258 242 245 253
241 255 199 203 206 336 180 209 249 298 292 308 293 71 80 117 103 94 91 84 67 40 22 11 10 10 8 6 356 346 329 320 314 313 309 280 267 272 259 256 256 265 261 259
199 249 249 292 81 297 293 327 275 284 162 242 300 296 89 126 124 125 114 93 56 31 14 6 3 4 4 3 2 355 358 2 350 348 328 309 285 273 266 262 258 257 262 265
171 210 244 201 184 182 238 170 256 285 280 272 294 29 127 134 146 152 132 103 57 3 9 2 2 2 359 356 355 355 5 6 355 349 349 328 311 287 276 262 250 263 284 275
190 207 260 297 350 329 210 211 218 242 278 318 267 305 149 165 169 165 156 11 12 358 1 1 358 355 353 351 351 0 11 7 356 3 0 344 330 306 289 274 259 251 272 271
222 239 233 274 263 241 277 268 216 248 280 276 303 316 155 185 181 172 165 352 347 352 350 352 348 347 346 347 347 351 6 357 6 5 6 22 16 2 326 305 288 276 290 278
190 243 262 255 229 240 251 263 261 272 281 281 274 273 151 170 178 187 190 255 322 347 344 342 338 338 341 340 336 341 0 354 358 358 5 2 3 7 12 9 349 302 279 262
204 176 233 266 172 254 251 260 285 276 275 265 269 334 154 178 202 199 204 256 318 329 333 335 332 335 331 335 331 335 348 338 344 0 353 358 19 27 24 22 23 0 314 292
187 197 239 287 219 246 340 73 281 280 281 265 256 266 194 193 195 203 218 289 295 311 324 327 327 327 320 316 314 323 327 316 336 355 9 26 30 23 17 16 10 2 341 323
269 227 195 245 242 284 285 184 226 233 290 236 246 210 194 187 202 222 226 235 257 285 305 314 316 313 303 295 309 313 311 298 325 345 19 17 2 348 351 352 354 347 340 326
192 251 247 169 274 279 305 126 186 196 265 144 206 203 198 193 231 143 184 220 233 253 274 292 290 294 301 292 302 302 297 286 310 320 350 344 340 336 330 328 326 324 322 321
174 207 239 247 276 289 335 158 162 239 28 127 193 207 203 210 262 132 182 211 222 237 254 267 266 286 283 275 284 294 292 277 281 294 328 324 324 331 329 329 323 317 312 306
236 237 237 219 268 282 58 159 241 2 339 266 212 210 211 220 220 210 214 221 227 234 247 254 256 274 269 269 276 291 286 264 298 314 317 317 319 324 320 330 330 320 317 320
237 280 300 272 306 47 237 252 262 281 294 306 276 232 222 224 228 229 230 229 232 236 245 247 252 266 267 267 273 288 292 280 277 301 305 313 321 323 330 334 334 338 325 324
185 197 243 281 269 273 285 292 269 277 266 280 279 263 236 234 241 239 239 236 236 238 239 242 245 254 255 257 273 280 280 280 276 287 299 309 317 324 330 338 325 327 326 324
328 160 238 255 266 290 136 12 350 329 300 279 269 273 244 241 248 248 247 243 241 239 238 232 237 242 240 250 269 273 277 273 269 273 285 298 309 309 319 322 322 331 325 332
212 252 239 273 12 305 297 313 320 312 311 302 285 267 253 246 251 253 251 248 241 235 232 229 232 230 231 239 256 265 261 260 265 271 290 295 307 312 318 320 324 323 331 350